Location: Rometta
(44.2000°N, 10.0500°E)
Time: 12:34:23
(UTC+00:00)

CSL-04 Debris - Pass Details

Date: 20 January 2021
Orbit: 827 x 847 km, 98.9° (Epoch: 06 March)

Event Time Altitude Azimuth Distance (km) Brightness Sun altitude
Rises 17:39:18 0° 143° (SE) 3,361 7.1 -15.2°
Reaches altitude 10° 17:41:45 10° 137° (SE) 2,430 6.3 -15.6°
Maximum altitude 17:46:46 42° 68° (ENE) 1,173 4.5 -16.5°
Drops below altitude 10° 17:51:49 10° 359° (N) 2,441 6.5 -17.4°
Sets 17:54:16 0° 353° (N) 3,379 7.3 -17.8°
